When you browse on this site, cookies collect data to enhance your experience and personalize the content and advertising you see.
Visit our Privacy Policy to learn more. By continuing to use the site, you agree to this use of cookies and data.
  • In Schweiz
  • Länderverzeichnis
  • Für 7 Tage
  • Wassertemperatur
  • Wetterkarte
  • Widgets
  • user-avatar
    Anmelden

    Stündliche Wetter Aurich

    Heute, 31 Mai, Sonntag

    Zeit Temperatur Niederschläge Wind Luftdruck Luftfeuchtigkeit
    00:00 +9°C° 0 mm 2 m/S 769 mmHg 83%
    01:00 +9°C° 0 mm 2 m/S 769 mmHg 82%
    02:00 +9°C° 0 mm 2 m/S 769 mmHg 81%
    03:00 +8°C° 0 mm 3 m/S 769 mmHg 80%
    04:00 +10°C° 0 mm 2 m/S 769 mmHg 78%
    05:00 +12°C° 0 mm 2 m/S 769 mmHg 76%
    06:00 +13°C° 0 mm 2 m/S 769 mmHg 73%
    07:00 +13°C° 0 mm 3 m/S 769 mmHg 70%
    08:00 +14°C° 0 mm 3 m/S 769 mmHg 66%
    09:00 +17°C° 0 mm 4 m/S 769 mmHg 63%
    10:00 +17°C° 0 mm 4 m/S 769 mmHg 63%
    11:00 +17°C° 0 mm 5 m/S 769 mmHg 63%
    12:00 +17°C° 0 mm 5 m/S 769 mmHg 63%
    13:00 +17°C° 0 mm 6 m/S 769 mmHg 63%
    14:00 +17°C° 0 mm 6 m/S 769 mmHg 63%
    15:00 +19°C° 0 mm 6 m/S 769 mmHg 63%
    16:00 +17°C° 0 mm 6 m/S 769 mmHg 66%
    17:00 +16°C° 0 mm 6 m/S 769 mmHg 70%
    18:00 +15°C° 0 mm 5 m/S 769 mmHg 74%
    19:00 +14°C° 0 mm 5 m/S 769 mmHg 74%
    20:00 +12°C° 0 mm 5 m/S 769 mmHg 75%
    21:00 +10°C° 0 mm 5 m/S 769 mmHg 76%
    22:00 +10°C° 0 mm 5 m/S 769 mmHg 76%
    23:00 +9°C° 0 mm 5 m/S 770 mmHg 76%

    Morgen, 1 Juni, Montag

    Zeit Temperatur Niederschläge Wind Luftdruck Luftfeuchtigkeit
    00:00 +8°C° 0 mm 5 m/S 770 mmHg 76%
    01:00 +8°C° 0 mm 5 m/S 769 mmHg 79%
    02:00 +7°C° 0 mm 5 m/S 769 mmHg 81%
    03:00 +6°C° 0 mm 4 m/S 769 mmHg 83%
    04:00 +8°C° 0 mm 5 m/S 769 mmHg 82%
    05:00 +9°C° 0 mm 5 m/S 769 mmHg 80%
    06:00 +10°C° 0 mm 5 m/S 770 mmHg 78%
    07:00 +13°C° 0 mm 5 m/S 769 mmHg 76%
    08:00 +14°C° 0 mm 5 m/S 769 mmHg 73%
    09:00 +16°C° 0 mm 5 m/S 769 mmHg 71%
    10:00 +17°C° 0 mm 5 m/S 769 mmHg 68%
    11:00 +19°C° 0 mm 5 m/S 769 mmHg 66%
    12:00 +20°C° 0 mm 5 m/S 769 mmHg 63%
    13:00 +20°C° 0 mm 5 m/S 768 mmHg 63%
    14:00 +21°C° 0 mm 5 m/S 768 mmHg 63%
    15:00 +21°C° 0 mm 5 m/S 768 mmHg 63%
    16:00 +20°C° 0 mm 5 m/S 768 mmHg 68%
    17:00 +19°C° 0 mm 5 m/S 767 mmHg 73%
    18:00 +17°C° 0 mm 5 m/S 767 mmHg 78%
    19:00 +16°C° 0 mm 5 m/S 767 mmHg 81%
    20:00 +14°C° 0 mm 5 m/S 767 mmHg 84%
    21:00 +13°C° 0 mm 5 m/S 767 mmHg 86%
    22:00 +12°C° 0 mm 4 m/S 767 mmHg 87%
    23:00 +11°C° 0 mm 4 m/S 767 mmHg 87%

    übermorgen, 2 Juni, Dienstag

    Zeit Temperatur Niederschläge Wind Luftdruck Luftfeuchtigkeit
    00:00 +11°C° 0 mm 4 m/S 767 mmHg 87%
    01:00 +10°C° 0 mm 4 m/S 767 mmHg 88%
    02:00 +8°C° 0 mm 4 m/S 766 mmHg 90%
    03:00 +9°C° 0 mm 3 m/S 766 mmHg 92%
    04:00 +10°C° 0 mm 3 m/S 766 mmHg 89%
    05:00 +12°C° 0 mm 3 m/S 766 mmHg 85%
    06:00 +13°C° 0 mm 3 m/S 765 mmHg 82%
    07:00 +16°C° 0 mm 3 m/S 765 mmHg 77%
    08:00 +18°C° 0 mm 3 m/S 765 mmHg 73%
    09:00 +19°C° 0 mm 4 m/S 765 mmHg 69%
    10:00 +20°C° 0 mm 4 m/S 764 mmHg 65%
    11:00 +21°C° 0 mm 4 m/S 764 mmHg 62%
    12:00 +22°C° 0 mm 4 m/S 764 mmHg 58%
    13:00 +22°C° 0 mm 4 m/S 763 mmHg 59%
    14:00 +22°C° 0 mm 4 m/S 762 mmHg 60%
    15:00 +22°C° 0 mm 4 m/S 761 mmHg 60%
    16:00 +22°C° 0 mm 3 m/S 761 mmHg 65%
    17:00 +21°C° 0 mm 3 m/S 760 mmHg 70%
    18:00 +20°C° 0 mm 3 m/S 760 mmHg 75%
    19:00 +19°C° 0 mm 3 m/S 760 mmHg 78%
    20:00 +17°C° 0 mm 3 m/S 760 mmHg 80%
    21:00 +14°C° 0 mm 3 m/S 760 mmHg 83%
    22:00 +14°C° 0 mm 3 m/S 759 mmHg 84%
    23:00 +13°C° 0 mm 3 m/S 759 mmHg 85%

    3 Juni, Mittwoch

    Zeit Temperatur Niederschläge Wind Luftdruck Luftfeuchtigkeit
    00:00 +13°C° 0 mm 3 m/S 759 mmHg 86%
    01:00 +12°C° 0 mm 3 m/S 758 mmHg 87%
    02:00 +12°C° 0 mm 3 m/S 758 mmHg 89%
    03:00 +12°C° 0 mm 3 m/S 757 mmHg 90%
    04:00 +13°C° 0 mm 3 m/S 757 mmHg 87%
    05:00 +14°C° 0 mm 4 m/S 757 mmHg 84%
    06:00 +15°C° 0 mm 4 m/S 757 mmHg 81%
    07:00 +18°C° 0 mm 4 m/S 757 mmHg 78%
    08:00 +19°C° 0 mm 4 m/S 757 mmHg 75%
    09:00 +20°C° 0 mm 4 m/S 757 mmHg 72%
    10:00 +21°C° 0 mm 3 m/S 757 mmHg 68%
    11:00 +22°C° 0 mm 3 m/S 757 mmHg 65%
    12:00 +24°C° 0 mm 3 m/S 757 mmHg 62%
    13:00 +25°C° 0.1 mm 3 m/S 757 mmHg 61%
    14:00 +25°C° 0.1 mm 3 m/S 756 mmHg 60%
    15:00 +25°C° 0.1 mm 2 m/S 756 mmHg 59%
    16:00 +24°C° 0.1 mm 2 m/S 756 mmHg 65%
    17:00 +22°C° 0.1 mm 3 m/S 756 mmHg 70%
    18:00 +22°C° 0.1 mm 3 m/S 756 mmHg 76%
    19:00 +20°C° 0 mm 3 m/S 756 mmHg 80%
    20:00 +18°C° 0 mm 3 m/S 756 mmHg 85%
    21:00 +16°C° 0 mm 3 m/S 756 mmHg 89%
    22:00 +16°C° 0 mm 3 m/S 756 mmHg 90%
    23:00 +14°C° 0 mm 3 m/S 756 mmHg 90%

    4 Juni, Donnerstag

    Zeit Temperatur Niederschläge Wind Luftdruck Luftfeuchtigkeit
    00:00 +15°C° 0 mm 2 m/S 756 mmHg 91%
    01:00 +14°C° 0 mm 2 m/S 756 mmHg 92%
    02:00 +14°C° 0 mm 2 m/S 756 mmHg 92%
    03:00 +14°C° 0 mm 1 m/S 756 mmHg 92%
    04:00 +15°C° 0 mm 2 m/S 756 mmHg 90%
    05:00 +16°C° 0 mm 2 m/S 756 mmHg 88%
    06:00 +17°C° 0 mm 2 m/S 756 mmHg 86%
    07:00 +18°C° 0 mm 3 m/S 756 mmHg 83%
    08:00 +19°C° 0 mm 3 m/S 756 mmHg 80%
    09:00 +20°C° 0 mm 4 m/S 756 mmHg 77%
    10:00 +20°C° 0 mm 4 m/S 756 mmHg 77%
    11:00 +20°C° 0 mm 5 m/S 755 mmHg 77%
    12:00 +20°C° 0 mm 5 m/S 755 mmHg 76%
    13:00 +19°C° 0.1 mm 5 m/S 755 mmHg 78%
    14:00 +17°C° 0.1 mm 5 m/S 755 mmHg 79%
    15:00 +16°C° 0.1 mm 5 m/S 755 mmHg 80%
    16:00 +15°C° 0 mm 5 m/S 755 mmHg 81%
    17:00 +14°C° 0 mm 5 m/S 755 mmHg 81%
    18:00 +13°C° 0 mm 5 m/S 755 mmHg 82%
    19:00 +12°C° 0 mm 4 m/S 755 mmHg 85%
    20:00 +10°C° 0 mm 4 m/S 755 mmHg 89%
    21:00 +9°C° 0 mm 3 m/S 755 mmHg 92%
    22:00 +9°C° 0 mm 2 m/S 755 mmHg 92%
    23:00 +8°C° 0 mm 2 m/S 754 mmHg 91%

    5 Juni, Freitag

    Zeit Temperatur Niederschläge Wind Luftdruck Luftfeuchtigkeit
    00:00 +9°C° 0 mm 1 m/S 754 mmHg 90%
    01:00 +9°C° 0 mm 1 m/S 754 mmHg 90%
    02:00 +9°C° 0 mm 1 m/S 754 mmHg 90%
    03:00 +9°C° 0 mm 1 m/S 753 mmHg 90%
    04:00 +10°C° 0 mm 1 m/S 753 mmHg 86%
    05:00 +10°C° 0 mm 2 m/S 753 mmHg 83%
    06:00 +12°C° 0 mm 2 m/S 753 mmHg 79%
    07:00 +13°C° 0 mm 3 m/S 753 mmHg 74%
    08:00 +14°C° 0 mm 3 m/S 752 mmHg 68%
    09:00 +15°C° 0 mm 4 m/S 752 mmHg 63%
    10:00 +17°C° 0 mm 4 m/S 752 mmHg 63%
    11:00 +16°C° 0 mm 5 m/S 752 mmHg 62%
    12:00 +17°C° 0 mm 6 m/S 752 mmHg 62%
    13:00 +16°C° 0 mm 6 m/S 752 mmHg 67%
    14:00 +15°C° 0 mm 6 m/S 752 mmHg 72%
    15:00 +14°C° 0 mm 7 m/S 752 mmHg 77%
    16:00 +13°C° 0 mm 6 m/S 752 mmHg 76%
    17:00 +13°C° 0 mm 6 m/S 753 mmHg 74%
    18:00 +12°C° 0 mm 5 m/S 753 mmHg 73%
    19:00 +10°C° 0 mm 5 m/S 753 mmHg 76%
    20:00 +9°C° 0 mm 5 m/S 754 mmHg 79%
    21:00 +7°C° 0 mm 5 m/S 754 mmHg 83%
    22:00 +7°C° 0 mm 5 m/S 754 mmHg 82%
    23:00 +7°C° 0 mm 4 m/S 754 mmHg 82%
    Mehr zeigen